Regional Weather Roundup
Issued by NWS Newport/Morehead, NC

Current Version | Previous Version | Text Only | Print | Product List | Glossary On
Versions: 1 2 3 4 5 6 7 8 9 10 11 12 13 14 15 16 17 18 19 20 21 22 23 24 25 26 27 28 29 30 31 32 33 34 35 36 37 38 39 40 41 42 43 44 45 46 47 48 49 50
000
ASUS42 KMHX 212025
RWRMHX
WEATHER ROUNDUP FOR EASTERN NORTH CAROLINA
NATIONAL WEATHER SERVICE NEWPORT/MOREHEAD CITY NC
300 PM EST SAT JAN 21 2017

NOTE: "FAIR" INDICATES FEW OR NO CLOUDS BELOW 12,000 FEET
WITH NO SIGNIFICANT WEATHER AND/OR OBSTRUCTIONS TO VISIBILITY

NCZ015>017-031-032-045>047-102-103-212100-
NORTH COAST

CITY           SKY/WX    TMP DP  RH WIND       PRES   REMARKS
EDENTON        CLOUDY    55  52  89 CALM      29.85F
ELIZABETH CITY CLOUDY    50  49  96 E5        29.85F FOG
KITTY HAWK     NOT AVBL
MANTEO         FOG       51  51 100 CALM      29.85S VSB 1/2

$$

NCZ045>047-081-094-103-104-212100-
CENTRAL COAST

CITY           SKY/WX    TMP DP  RH WIND       PRES   REMARKS
FRISCO         CLOUDY    56  52  86 VRB3      29.83F

$$

NCZ095-097-098-100-101-212100-
SOUTHERN COAST

CITY           SKY/WX    TMP DP  RH WIND       PRES   REMARKS
BEAUFORT       CLOUDY    69  62  78 E3        29.81F
CEDAR ISLAND   NOT AVBL
JACKSONVILLE   CLOUDY    64  60  87 CALM      29.81F
PINEY ISLAND   CLOUDY   N/A N/A N/A NE5       29.82F
WILMINGTON     CLOUDY    67  63  87 SE7       29.79F


$$

NCZ011>013-027>030-043-044-078>080-089-090>093-098-212100-
COASTAL PLAIN

CITY           SKY/WX    TMP DP  RH WIND       PRES   REMARKS
AHOSKIE          N/A     52  51  96 CALM      29.84F
CLINTON        DRIZZLE   63  60  90 CALM      29.79F
ELIZABETHTOWN  DRIZZLE   67  62  83 S8        29.78S
GOLDSBORO      CLOUDY    57  57 100 E6        29.79F FOG
GREENVILLE     CLOUDY    59  55  88 S3        29.86R
HAVELOCK       CLOUDY    59  52  77 N6        29.83F
KENANSVILLE    CLOUDY    61  57  88 E3        29.80F
KINSTON        NOT AVBL
NEW BERN       PTSUNNY   59  52  77 CALM      29.83F
RICHLANDS      CLOUDY    62  58  86 CALM      29.82F
ROCKY MOUNT    CLOUDY    53  53 100 CALM      29.82F FOG
WASHINGTON     CLOUDY    58  52  79 E3          N/A
WHITEVILLE     CLOUDY    66  63  88 SE9       29.78F

$$

AMZ130-135-150-152-154-156-158-170-250-252-270-ANZ085-086-088-633-658-670-212100-
MARINE OBSERVATIONS

STATION/POSITION TIME  TEMP    WIND        PRES    WAVE   SWELL
                       AIR SEA DIR/SP/G            HT/PER HT/PER
                 (UTC) (F)     (DEG/KT/KT) (MB)    (FT/S) (FT/S)
CHESAPEAKE LIGHT NOT AVBL
64 E VA BEACH    1950   56 57  350/  4/  4 1010.3    3/11   3/11
DUCK             2000   49 45   60/  1/  1 1010.1
2 E DUCK         2000      47                N/A     3/10   2/11
OREGON INLET     2000   53 49   40/  2/  2 1010.3
13E OREGON INLT  NOT AVBL
HATTERAS CG      2000   51 55   10/  5/  6 1009.7
DIAMOND BUOY     1950   69 74  160/ 10/ 12 1009.8    4/11   3/11
CAPE LOOKOUT     2000   65     100/  2/  2 1009.1
BEAUFORT LAB     2000   64 51  120/  5/  6 1008.4
30 SE NEW RVR IN 2008   65 65  190/  4/  6 1009.3
30 SE NEW RVR IN 1943      65                N/A     3/12   2/12
27 SE WRIGHTSVLE 2008   71 72  160/ 12/ 17 1008.3
5 SE WRIGHTSVLE  2008   56      50/  4/  8 1008.8
225 S CAPE HAT   1950   68 71  150/ 10/ 14 1011.4    5/10   5/10
41 SE CHARLESTON 1950   69 67  210/ 10/ 12 1008.5    2/11   2/11

$$




USA.gov is the U.S. government's official web portal to all federal, state and local government web resources and services.